Regional Weather Roundup
Issued by NWS Midland/Odessa, TX

Skip options and go directly to product.
Home | Oldest Version | Previous Version | Current Version | All | Text Only | Save Text | Print | Product List | Glossary Off

Skip product version selection by date and time.   

306
ASUS44 KMAF 301301
RWRMAF
MIDLAND AREA WEATHER ROUNDUP
NATIONAL WEATHER SERVICE MIDLAND TX
800 AM CDT TUE AUG 30 2016

...IN SOUTHWEST TEXAS AND SOUTHEAST NEW MEXICO...

CITY           SKY/WX    TMP DP  RH WIND       PRES   REMARKS
ALPINE         CLOUDY    63  62  95 NE3       30.26S
ANDREWS        CLOUDY    66  66 100 NE6       30.18R FOG
ARTESIA        CLOUDY    68  68 100 N7        30.21R
BIG SPRING     CLOUDY    73  70  92 NE6       30.17R
CARLSBAD       CLOUDY    67  66  97 NW7       30.17S
DRYDEN           N/A     70  70 100 N5        30.07R
FORT STOCKTON  CLOUDY    68  68 100 NW3       30.14R FOG
GUAD PASS      NOT AVBL
HOBBS          MOCLDY    66  66 100 NE8       30.21R
MARFA          CLOUDY   N/A N/A N/A NE9       30.22S
MIDLAND AIRPK  PTCLDY    70  70  99 E6        30.16S
MIDLAND INTL   PTCLDY    70  66  87 E8        30.15R
ODESSA         PTCLDY    69  66  90 NE7       30.17R FOG
PECOS          CLOUDY    69  68  95 N7        30.12F
PRESIDIO       CLOUDY    69  68  96 NW3       30.10R
SEMINOLE       CLOUDY    66  65  99 CALM      30.20R
SNYDER           N/A     69  67  92 NE5       30.16S
WINK           CLOUDY    68  67  96 N3        30.13R
$$
...OTHER STATIONS IN TEXAS...

CITY           SKY/WX    TMP DP  RH WIND       PRES   REMARKS
ABILENE        PTCLDY    71  68  90 NE5       30.12R
AMARILLO       CLOUDY    65  64  97 N5        30.25S
AUSTIN         CLOUDY    75  73  93 N7        30.01R
BROWNSVILLE    MOSUNNY   78  75  90 NW9       29.88R
CORPUS CHRISTI RAIN      76  76 100 N10       29.90R FOG
DALLAS FTW     MOSUNNY   78  72  81 N5        30.05R
DEL RIO        CLOUDY    75  72  90 NE5       30.01S
EL PASO        MOCLDY    70  61  73 NE7       30.18R
HOUSTON INT    CLOUDY    76  71  85 NE9       29.97R
LUBBOCK        CLOUDY    66  64  93 NE8       30.21R
SAN ANGELO     CLOUDY    72  69  90 CALM      30.10R
SAN ANTONIO    CLOUDY    75  71  87 N7        30.00R
WACO           SUNNY     73  72  96 N7        30.04R
WICHITA FALLS  NOT AVBL
$$
...OTHER LOCATIONS IN NEW MEXICO...

CITY           SKY/WX    TMP DP  RH WIND       PRES   REMARKS
ALAMAGORDO     PTCLDY    61  55  82 SE7       30.21S
ALBUQUERQUE    PTCLDY    61  52  72 E10       30.33R
CANNON AFB     DRIZZLE   63  63 100 E7        30.27R
CLOVIS         CLOUDY    63  59  88 E9        30.27S
HOLLOMAN AFB   PTCLDY    64  56  75 S5        30.19R
ROSWELL        CLOUDY    67  62  84 N6        30.22R
RUIDOSO          N/A     55  55 100 S5        30.39R
SANTA FE       CLEAR     48  46  93 N9        30.39R
TRUTH OR CONSE CLEAR     63  54  72 NE13      30.25R
TUCUMCARI      CLOUDY    64  63  96 NE6       30.27R
$$

USA.gov is the U.S. government's official web portal to all federal, state and local government web resources and services.